GEFSSE_500_meanwind_288.txt.gz
Wind_Speed
14 14 14 14 14 14 14 14 14 14 14 14 14 14 14 14 14 13 13 14 14 14 14 14 14 13 13 12 12 12 12 12 11 11 11 11 11 11 11 11 12 12 12
16 16 16 16 16 16 16 16 15 15 15 15 15 16 16 16 15 15 15 15 15 16 16 16 16 15 15 14 14 14 13 13 13 13 13 12 12 13 13 13 13 13 13
18 18 18 18 18 18 18 17 17 17 17 17 17 17 17 17 17 17 17 17 17 17 18 18 17 17 17 16 16 15 15 15 15 15 14 14 14 14 15 15 15 15 15
21 21 20 20 19 19 19 19 19 19 19 19 19 19 19 19 19 19 18 19 19 19 19 19 19 19 19 18 18 17 17 17 17 16 16 15 15 16 16 16 16 16 16
22 22 22 22 21 21 21 21 21 21 21 21 21 21 21 21 21 21 21 20 20 21 21 21 21 20 20 20 20 19 19 18 18 18 18 17 17 17 18 18 18 18 18
24 24 24 24 23 23 23 23 23 23 23 23 23 23 23 23 23 23 23 22 22 23 23 22 22 22 21 21 20 20 20 20 19 19 19 19 19 19 19 19 19 20 20
26 26 26 25 25 25 25 25 25 25 25 25 25 25 25 25 25 25 25 25 24 24 24 24 24 24 23 22 22 21 21 21 21 20 20 20 20 21 21 21 21 21 21
27 27 27 27 27 27 27 27 27 27 27 27 27 27 27 27 28 28 28 27 27 27 27 26 25 25 25 25 24 24 23 23 23 23 22 22 22 22 22 23 23 23 23
29 29 29 29 29 29 29 29 29 30 30 29 29 29 29 29 30 30 30 29 29 29 29 28 27 26 26 26 26 26 25 25 25 25 24 24 24 24 24 25 25 25 25
31 30 31 31 31 31 31 32 32 32 31 31 31 31 31 31 31 31 31 30 30 30 30 30 29 28 28 28 28 28 28 28 27 27 27 26 26 26 26 27 27 27 27
33 33 33 33 33 34 34 34 34 34 34 33 33 33 33 32 32 32 32 32 32 32 32 31 31 30 30 30 29 29 30 30 30 29 29 29 29 29 29 29 29 29 30
35 35 35 35 36 36 36 36 36 36 36 36 36 35 34 34 34 34 33 33 33 33 33 33 32 32 32 31 31 31 31 31 32 31 31 31 31 31 31 32 32 32 32
36 36 36 37 37 37 37 37 38 38 38 37 38 37 36 36 36 36 35 35 34 34 34 34 34 34 34 33 33 33 33 33 34 34 33 33 34 33 33 33 34 34 34
37 38 38 38 38 38 38 38 39 39 39 38 38 38 37 37 37 37 37 36 36 36 35 35 35 35 35 35 35 35 35 35 35 36 35 36 36 36 36 36 36 36 36
38 39 39 39 39 39 39 39 40 40 40 39 39 39 38 38 37 37 37 37 37 37 36 36 35 36 35 36 36 36 36 36 37 37 38 38 38 38 38 38 38 37 37
39 39 39 39 40 40 40 40 40 40 41 40 39 39 39 39 38 37 38 38 37 36 36 36 36 36 36 36 37 38 38 38 39 39 39 39 39 39 39 39 39 38 37
39 39 39 39 40 40 40 40 40 40 40 40 39 39 39 39 39 38 38 38 37 37 37 37 37 37 37 37 38 39 39 39 39 39 40 40 40 40 40 40 39 38 38
39 38 38 38 39 40 40 40 40 40 40 40 39 39 39 39 39 39 38 38 38 38 38 37 37 38 37 38 38 39 40 40 41 40 40 40 40 40 39 39 39 39 39
38 37 37 37 37 37 38 39 39 40 39 39 40 40 39 38 39 39 39 39 39 39 39 38 38 38 38 39 39 39 40 41 40 41 40 39 39 39 38 38 39 38 38
37 36 36 36 36 36 37 38 38 39 40 40 40 40 39 39 39 40 40 40 40 40 40 40 40 39 40 40 39 40 40 40 39 40 40 39 39 38 38 38 38 38 38
37 36 36 37 37 37 37 38 38 39 40 40 41 41 41 40 39 40 41 41 40 40 41 41 40 40 41 40 39 39 40 40 40 40 40 40 40 39 39 39 38 38 38
36 36 37 37 37 38 38 39 39 40 40 41 41 42 43 41 40 41 42 42 41 41 40 40 41 40 41 40 40 40 41 40 40 40 40 40 40 40 39 39 39 39 39
36 36 36 36 37 38 38 38 39 39 40 41 41 41 42 41 42 41 41 42 42 42 41 41 41 41 41 41 41 41 41 41 41 40 41 41 41 41 40 40 40 40 40
34 34 35 36 36 37 37 37 38 38 38 39 40 41 42 42 41 40 41 42 41 41 42 42 42 43 42 41 41 41 41 41 42 42 42 42 42 42 41 41 40 39 39
33 33 34 34 35 35 36 36 35 36 36 37 37 38 39 39 39 39 40 41 41 41 41 42 43 43 42 41 41 40 40 41 42 42 42 42 42 42 42 42 41 40 38
31 31 32 32 32 33 33 34 34 34 35 36 36 37 37 38 38 38 39 39 40 40 40 42 43 43 41 41 41 40 39 39 40 41 41 42 42 42 42 41 40 39 38

GEFSSE_500_meanwind_294.txt.gz
Wind_Speed
16 16 16 16 16 16 16 16 16 16 16 15 15 15 15 15 15 14 14 14 14 14 14 13 13 13 12 12 12 13 13 13 12 12 12 12 12 12 12 13 13 12 12
17 17 17 17 17 18 18 18 17 17 17 16 16 16 16 16 16 16 16 16 16 16 15 15 15 15 14 14 14 14 15 15 15 15 14 14 14 14 13 14 14 14 14
19 19 19 19 19 19 19 19 19 19 18 18 18 17 18 18 18 18 18 18 18 17 17 17 17 17 16 16 16 17 16 16 16 16 16 16 16 15 15 15 15 16 16
20 21 20 21 21 20 20 21 20 20 20 19 19 18 18 19 19 20 19 20 19 19 19 19 19 18 18 18 18 18 18 18 18 18 18 17 17 17 17 17 17 17 17
23 22 22 22 22 22 22 22 21 21 21 20 20 19 20 20 20 20 21 21 21 21 21 21 21 21 21 20 20 20 20 20 20 19 19 18 18 18 18 19 18 19 19
25 24 24 24 24 24 23 23 23 23 23 22 22 22 22 22 22 22 22 22 22 23 23 23 24 23 23 23 23 23 22 22 22 21 21 20 20 20 20 21 20 20 20
27 26 26 26 26 25 25 25 25 25 25 25 25 24 24 24 24 24 24 24 24 24 25 24 25 25 25 25 25 25 24 23 23 23 22 22 22 22 22 22 22 22 21
28 28 28 28 28 27 27 27 27 27 27 27 27 27 26 26 25 25 25 25 26 26 27 26 26 26 27 27 27 27 26 26 25 24 24 24 24 24 24 24 23 23 23
31 30 30 29 29 29 29 29 29 29 29 29 29 29 28 28 28 27 27 27 28 28 29 29 29 29 29 29 29 28 28 28 27 27 27 27 26 26 25 25 25 25 25
32 31 31 31 31 32 32 32 32 32 32 32 32 31 31 31 31 30 30 30 30 30 31 31 32 31 30 31 31 31 30 30 29 29 29 29 28 28 27 28 28 27 27
33 33 33 33 34 34 34 34 34 34 34 34 34 34 33 33 33 32 32 32 32 33 33 33 34 33 33 32 32 32 32 32 32 32 31 31 31 30 30 30 30 30 30
35 35 34 35 35 35 35 35 36 36 36 36 36 36 36 36 35 35 35 35 35 35 34 35 35 35 35 34 33 33 33 33 33 33 33 33 32 32 32 32 31 32 32
37 37 37 37 37 38 37 37 37 37 37 37 37 37 38 38 37 37 36 36 36 35 35 35 36 36 36 36 35 34 33 33 33 34 34 34 34 34 34 33 33 34 34
38 38 39 39 39 40 40 39 39 39 39 39 39 39 39 38 38 38 38 37 36 36 36 36 36 36 37 37 37 36 35 34 34 34 34 35 35 36 36 35 35 36 36
39 39 40 40 41 41 41 41 41 41 41 41 40 40 40 39 39 39 38 38 37 37 37 37 37 37 36 37 37 37 36 36 35 35 35 36 37 37 37 37 37 37 37
40 40 41 42 42 42 42 42 42 42 42 43 42 41 41 41 41 40 40 39 39 39 38 38 38 38 37 37 37 37 37 37 37 37 37 37 38 38 38 38 38 38 38
41 41 41 41 41 42 42 42 42 42 42 43 43 43 43 42 42 42 41 41 41 40 40 40 39 39 39 39 38 38 38 38 39 39 38 38 38 38 38 38 38 38 38
41 41 41 40 40 41 41 42 43 43 43 43 43 43 44 43 42 42 43 42 41 41 41 41 40 40 40 40 40 38 38 39 39 39 39 39 38 38 38 38 38 37 37
41 41 40 40 40 41 41 42 42 42 42 42 42 43 44 44 44 44 44 43 42 42 42 42 42 41 41 41 40 39 39 39 39 39 39 39 38 38 37 37 37 37 37
41 41 40 41 40 40 41 41 41 42 42 42 42 42 43 44 44 44 44 44 43 42 42 42 42 42 42 42 41 40 39 39 39 39 39 39 39 38 37 37 36 37 37
40 40 40 41 41 41 41 42 41 42 41 41 42 42 42 42 43 43 44 44 44 43 43 43 43 42 42 42 42 41 40 39 39 39 39 38 38 38 39 39 38 37 37
40 40 40 40 41 41 41 42 42 41 41 41 42 41 41 41 41 42 43 43 43 44 43 43 43 43 43 42 42 41 41 40 40 40 39 39 38 39 40 40 39 38 38
39 40 40 39 40 41 41 42 42 41 41 41 41 41 40 41 41 41 42 43 43 43 43 43 43 43 42 42 42 42 41 40 40 40 40 40 40 40 40 40 40 40 39
37 38 39 39 39 40 40 41 41 40 40 40 40 40 40 41 41 40 40 41 42 42 42 42 42 41 42 42 42 42 41 41 41 40 39 40 40 41 41 40 40 39 39
36 37 37 37 38 38 39 39 39 39 40 40 40 40 40 40 41 40 40 40 41 42 42 42 41 41 41 40 41 41 41 41 40 40 40 39 39 40 40 40 40 39 39
35 35 36 36 37 37 37 36 37 38 38 39 39 39 39 39 39 39 39 39 40 40 40 40 41 40 40 40 41 40 40 40 39 40 39 39 39 39 39 40 40 40 40

GEFSSE_500_meanwind_300.txt.gz
Wind_Speed
16 16 16 15 15 15 15 15 15 15 14 14 14 14 15 15 15 15 15 14 14 14 14 14 14 14 14 13 13 13 13 13 13 13 13 13 13 13 13 13 13 13 14
17 17 17 17 17 17 16 16 16 16 16 15 15 16 16 16 16 16 16 16 16 15 16 16 16 16 15 15 15 15 15 15 15 15 15 15 15 15 15 14 15 15 15
19 19 18 18 18 18 18 18 18 18 17 17 17 17 17 17 17 17 17 17 17 17 17 17 18 18 17 17 17 17 17 17 17 17 17 17 17 17 17 16 16 17 17
20 20 20 20 20 20 20 20 19 19 19 19 19 19 19 18 18 18 18 18 18 18 19 19 19 19 19 19 19 19 19 19 19 19 19 19 19 19 19 18 18 18 18
22 22 22 21 21 21 21 21 21 21 21 21 21 21 20 20 19 19 19 19 19 20 20 21 20 21 21 21 22 22 22 21 21 21 21 21 20 20 20 20 20 20 19
24 24 23 22 22 22 22 22 22 22 22 23 23 22 22 22 21 21 21 21 21 21 22 22 22 22 22 23 23 23 23 23 23 23 23 23 23 23 22 22 22 22 21
26 25 25 24 24 24 24 24 24 24 24 24 24 24 24 24 24 23 23 23 24 23 24 24 24 25 25 24 25 25 25 25 25 25 24 24 24 24 24 24 24 24 24
28 27 27 27 26 26 26 26 26 25 26 26 26 26 26 26 26 26 26 26 26 25 25 26 26 27 27 27 26 27 27 27 27 27 27 26 26 26 26 26 26 26 26
30 29 29 29 28 28 28 28 28 28 28 28 28 28 28 28 29 28 28 28 28 28 28 28 28 28 29 29 28 28 29 29 29 29 29 28 28 28 28 28 28 28 27
32 31 31 30 31 31 30 30 30 30 31 31 31 31 31 31 31 31 31 30 30 30 30 30 30 29 29 29 30 30 30 30 30 30 30 30 30 30 30 30 29 29 29
33 33 33 32 32 32 33 33 33 33 33 33 33 33 33 33 33 33 33 32 32 32 32 32 31 31 31 31 31 31 31 31 31 31 31 31 31 32 32 31 31 31 31
34 34 34 34 34 34 34 34 34 35 35 35 35 35 35 35 35 34 34 34 34 34 34 34 34 34 34 33 33 33 33 33 32 32 32 32 32 33 33 33 33 33 32
35 34 35 35 35 35 35 36 36 36 36 36 37 36 37 37 37 36 36 36 36 36 36 36 36 36 36 36 36 35 35 34 33 34 34 34 34 34 34 34 34 34 34
35 36 36 36 36 36 37 37 37 37 38 38 38 38 38 39 39 39 38 38 38 38 38 38 38 38 38 38 38 37 36 35 35 35 35 35 35 36 36 36 36 36 36
36 36 37 38 38 38 38 38 38 38 39 39 40 39 40 40 40 41 41 41 41 40 40 40 39 39 39 39 39 38 38 38 37 37 37 37 37 37 38 38 38 38 38
37 37 38 38 39 39 39 39 39 40 40 40 40 40 41 41 42 43 42 42 42 42 42 41 40 40 40 40 40 40 40 40 40 39 39 40 39 39 39 39 39 39 38
37 38 39 39 39 40 39 40 40 40 40 41 41 42 42 43 43 44 44 44 43 43 43 42 41 41 42 42 41 41 41 41 41 41 41 41 40 40 40 39 39 39 38
37 37 38 39 40 40 40 40 40 40 41 42 42 42 43 43 44 44 44 44 43 44 43 43 43 43 43 43 42 42 43 43 42 42 42 42 41 40 40 40 39 39 38
38 38 38 38 39 40 40 41 41 41 41 42 42 43 43 44 44 44 44 45 45 44 44 44 44 44 44 44 43 43 44 43 43 42 42 42 41 40 40 40 40 40 39
39 38 38 38 39 39 40 41 42 42 42 43 43 43 44 44 45 45 45 45 45 45 45 45 45 45 44 44 44 44 44 43 43 43 42 42 41 41 41 41 41 40 40
39 38 38 39 40 40 40 41 42 43 44 44 44 44 45 44 45 45 45 46 45 46 45 44 45 45 45 44 44 44 44 44 44 43 43 43 42 41 41 41 41 41 41
39 39 38 39 40 41 41 41 42 42 43 44 44 44 44 44 45 46 46 45 45 45 45 45 44 45 45 45 45 44 44 44 44 43 43 42 41 41 41 40 41 41 41
39 39 39 40 40 40 40 40 41 42 42 42 42 43 43 44 45 45 46 46 44 44 44 45 45 44 44 45 45 44 44 43 43 42 41 41 40 40 41 40 41 40 41
38 39 39 39 39 40 40 40 40 40 40 40 41 41 41 42 43 43 44 44 44 43 43 43 43 43 43 44 44 44 44 43 42 41 41 40 40 39 40 40 40 40 40
37 38 39 39 39 39 39 39 38 38 39 39 39 40 41 41 41 42 42 41 42 42 42 42 42 42 42 42 43 42 42 42 42 42 41 40 40 39 39 40 40 40 40
35 36 37 38 37 37 37 38 38 37 37 38 38 38 39 39 39 39 39 40 40 40 40 40 40 41 41 41 41 41 42 42 42 42 41 41 40 39 39 40 40 40 40

GEFSSE_500_meanwind_306.txt.gz
Wind_Speed
18 17 17 17 16 16 15 15 14 14 13 12 12 12 12 12 12 12 12 11 11 11 11 11 11 12 12 12 12 12 12 12 12 12 12 13 13 13 13 13 13 13 14
19 19 19 18 18 17 17 17 16 15 15 14 14 13 13 13 13 13 12 12 12 12 12 13 13 13 14 14 14 14 14 14 14 14 14 14 15 15 15 15 15 15 15
21 20 20 20 19 19 19 19 18 17 17 16 16 15 15 15 14 14 13 13 13 13 13 14 14 15 15 15 16 16 16 17 17 17 17 17 17 17 16 16 16 16 16
22 22 22 22 21 21 21 20 20 20 19 18 18 18 17 16 16 15 15 15 15 15 15 15 16 16 17 17 17 18 18 18 19 19 19 19 19 19 19 18 18 18 18
24 23 23 23 23 22 22 22 22 21 21 20 20 20 19 18 18 18 18 17 17 17 17 17 18 18 18 19 19 19 19 20 20 20 20 21 21 21 21 21 20 20 20
25 25 24 24 24 24 23 23 23 23 23 22 22 21 21 20 20 20 20 20 19 19 19 19 19 19 20 20 21 21 21 21 22 22 22 22 22 23 23 23 23 23 22
27 26 26 26 25 25 25 24 24 24 24 23 23 23 23 23 23 23 22 22 22 22 22 22 22 21 21 22 22 23 23 23 24 24 24 24 24 24 25 25 25 25 25
28 28 27 27 27 26 26 26 25 25 25 25 25 25 25 25 25 25 25 25 24 24 24 24 24 24 24 24 25 25 25 25 25 26 26 26 26 26 26 26 26 27 26
30 29 29 28 28 28 27 27 27 27 27 27 27 27 27 27 27 27 27 27 26 27 27 27 27 27 26 27 27 27 27 27 27 27 27 27 27 27 27 27 28 28 28
32 31 31 31 30 30 30 30 29 29 29 29 29 29 29 29 29 29 29 29 29 29 29 29 29 29 29 29 29 29 29 29 29 29 28 28 28 28 28 28 28 29 29
33 33 33 32 32 32 32 32 31 31 31 31 31 31 31 31 31 31 31 31 31 31 31 31 31 31 31 31 30 30 31 31 30 30 30 29 29 29 29 30 30 30 30
35 35 35 34 34 34 34 34 33 33 33 33 33 33 33 33 33 33 33 33 33 33 33 33 33 33 33 33 33 33 33 32 32 32 32 32 32 31 31 31 31 32 32
36 36 36 36 36 36 36 36 36 36 35 35 35 35 35 35 35 36 35 35 35 35 35 35 35 35 35 35 35 35 35 35 35 34 34 34 34 34 34 34 34 34 35
37 38 38 38 37 37 37 38 38 37 37 37 37 37 37 37 37 37 37 37 37 37 37 37 37 37 37 37 37 37 37 37 37 37 36 36 37 36 36 36 36 37 37
37 38 39 39 39 38 38 38 39 39 39 39 39 39 38 39 39 38 38 39 39 39 39 39 38 38 38 38 38 39 39 39 39 39 40 39 39 39 39 39 38 38 38
37 38 38 39 39 39 39 40 40 40 40 40 39 39 39 39 40 40 40 40 40 40 40 40 41 41 41 41 41 41 41 41 42 42 42 42 41 40 40 40 40 39 39
38 38 38 38 38 39 39 39 40 41 41 41 40 40 40 41 41 41 41 42 42 42 42 42 43 43 43 43 43 43 43 43 44 44 44 44 42 42 41 41 41 40 40
38 39 39 38 39 39 39 39 40 40 40 40 41 41 42 42 42 42 42 43 43 44 44 44 44 44 44 44 44 44 44 44 45 45 45 45 43 43 42 42 41 41 41
39 39 39 39 39 39 40 40 40 40 40 40 41 42 42 43 43 43 43 43 44 44 44 45 45 45 44 44 44 44 44 44 44 44 44 44 44 43 43 42 42 42 42
40 40 40 40 39 39 40 40 41 41 41 41 42 43 43 43 43 43 43 43 44 44 44 44 45 44 44 44 44 44 44 44 44 44 44 44 44 44 43 43 42 42 42
41 41 41 40 40 40 40 40 41 42 42 43 43 43 44 44 43 43 42 43 43 44 44 44 44 45 45 45 45 44 44 44 44 44 44 44 43 43 43 42 42 42 41
40 41 41 41 41 41 41 41 42 42 42 43 43 43 43 44 44 43 43 43 43 44 44 44 45 45 45 46 46 45 45 45 45 45 44 44 43 43 42 43 43 42 42
39 39 40 41 41 41 41 41 42 42 42 42 42 43 43 43 44 43 43 44 44 44 44 44 45 45 45 45 45 46 45 44 44 44 45 45 44 43 43 43 43 43 43
38 39 39 40 41 41 42 41 42 42 42 42 42 42 43 43 44 43 43 44 44 44 44 44 44 44 44 44 45 45 45 45 44 43 43 44 44 43 43 43 43 44 43
36 37 38 39 39 40 41 40 40 40 40 40 41 41 42 42 42 42 43 42 43 43 44 44 45 45 45 45 45 45 44 44 44 44 42 42 42 43 43 44 44 44 43
36 36 37 38 38 39 39 39 39 39 39 39 40 40 41 41 41 41 42 43 43 44 44 44 45 45 44 44 43 43 44 43 43 43 42 41 41 42 43 44 44 43 43

GEFSSE_500_meanwind_312.txt.gz
Wind_Speed
18 18 17 17 16 16 15 15 14 14 14 14 13 13 13 12 12 12 12 12 11 11 11 11 10 10 10 10 10 10 10 10 11 11 11 12 12 12 12 12 13 13 13
20 19 19 19 18 17 17 16 16 16 16 16 15 15 15 15 14 14 13 13 12 12 12 12 12 12 12 12 12 12 12 13 13 13 13 13 13 13 14 14 14 14 14
22 21 20 20 19 19 19 18 18 18 18 18 17 17 17 16 16 15 15 14 14 13 13 13 13 13 13 14 14 14 14 14 14 15 15 15 15 15 15 15 15 16 15
23 22 22 21 21 21 21 20 20 20 20 19 19 18 18 18 18 17 16 16 15 15 15 15 15 15 15 15 15 16 15 15 16 16 17 17 17 17 17 17 17 17 17
24 24 23 23 22 22 23 22 22 22 21 21 21 20 20 20 19 19 18 18 17 17 17 16 16 16 16 16 17 17 17 17 17 18 18 19 19 19 19 19 19 19 19
25 25 25 24 24 24 24 24 23 23 23 22 22 21 21 21 21 21 21 20 20 20 19 19 18 18 18 19 19 19 19 19 19 19 20 20 21 21 21 21 21 21 22
26 27 26 26 25 25 24 24 24 24 24 24 23 23 23 23 22 22 22 22 22 22 21 21 21 21 21 21 21 21 21 21 21 22 22 22 23 23 23 23 23 23 24
28 28 27 27 27 27 26 26 26 25 25 25 25 25 25 24 24 24 24 24 24 24 24 24 24 24 23 23 23 23 23 23 24 24 23 23 23 24 24 25 25 25 25
29 29 29 28 28 28 28 28 27 27 27 27 27 26 26 27 27 26 26 26 26 26 26 26 26 26 25 25 25 25 25 25 25 25 25 25 25 25 25 26 26 26 26
30 30 31 30 30 29 30 30 29 29 29 29 29 29 28 28 29 29 28 28 28 28 28 28 28 28 28 27 27 27 27 27 26 26 26 27 28 27 27 27 28 28 28
32 32 32 32 32 31 31 31 31 31 31 31 31 31 31 31 31 31 31 31 31 31 31 30 30 30 30 29 29 29 28 28 28 28 28 28 29 29 30 30 30 30 29
34 34 34 34 34 33 33 33 33 33 33 33 32 33 33 33 33 33 33 33 33 32 32 32 32 32 32 31 31 31 31 30 30 30 30 30 30 30 31 32 32 31 31
36 36 36 36 36 36 35 35 35 35 35 35 34 35 35 35 35 35 35 35 35 34 34 35 35 35 34 34 34 33 33 33 33 33 32 32 32 32 33 33 33 33 33
36 36 37 37 37 37 37 36 36 36 36 36 36 36 37 36 36 36 36 36 36 36 37 37 37 36 36 36 36 36 35 35 35 35 35 35 35 34 34 34 34 34 34
36 36 37 37 37 37 37 36 37 37 37 37 37 37 37 38 37 37 37 38 38 38 38 38 38 38 38 38 38 38 37 37 37 38 38 37 37 36 36 36 37 37 36
35 36 36 37 37 37 37 37 37 37 38 38 38 38 38 38 38 38 39 39 39 39 39 39 39 39 39 39 39 39 39 39 39 39 39 39 39 38 38 38 38 39 38
35 36 36 37 37 37 37 37 37 38 38 38 38 38 38 39 39 39 39 40 40 40 40 40 40 40 41 41 40 40 40 40 40 40 40 40 40 39 39 39 39 40 40
36 36 36 37 37 37 38 38 37 38 38 37 38 38 39 39 40 40 40 40 40 40 40 40 41 41 41 42 42 42 41 41 42 41 41 41 41 41 40 40 40 40 41
36 37 37 37 37 38 38 38 38 38 38 38 38 38 39 40 40 41 41 41 41 41 41 41 41 42 42 42 43 43 43 43 43 43 42 42 42 42 41 41 41 42 41
37 37 38 38 38 38 38 38 38 38 39 39 39 39 39 40 41 42 42 42 42 42 42 43 43 43 43 43 44 44 44 44 43 43 43 43 43 43 43 42 43 43 43
37 38 38 38 38 38 38 38 39 39 39 40 40 41 41 41 41 42 43 43 43 44 44 44 44 44 44 44 44 44 44 45 45 45 44 44 43 44 44 43 43 43 44
37 37 38 38 38 39 39 39 40 40 40 40 40 41 42 42 42 42 43 43 44 44 44 45 45 45 45 45 45 45 45 45 45 44 44 44 43 44 44 44 45 45 45
35 36 37 38 38 38 39 39 40 40 41 41 41 41 42 42 43 43 43 43 44 44 45 45 46 46 46 46 45 45 45 45 45 44 45 45 45 45 46 46 46 46 46
34 36 36 37 37 38 38 39 40 41 41 42 42 42 41 42 42 42 43 43 43 44 45 45 46 47 46 46 45 45 45 45 45 45 46 46 46 46 46 47 47 46 47
34 35 36 37 37 38 38 39 39 40 41 41 41 41 41 41 41 41 42 42 43 44 45 45 45 45 46 46 45 45 45 46 46 47 46 46 46 46 47 47 47 47 47
33 34 35 36 37 37 38 38 39 39 39 39 40 40 40 40 40 41 42 42 43 43 44 43 44 44 45 45 45 45 45 46 46 47 47 46 45 45 46 46 46 46 46

GEFSSE_500_meanwind_318.txt.gz
Wind_Speed
18 18 18 17 17 17 17 17 16 16 15 15 15 14 14 14 14 14 13 13 13 13 12 12 12 11 11 10 10 10 10 10 11 11 11 11 11 11 11 11 11 12 12
19 19 19 19 19 18 18 18 18 17 17 16 16 16 16 15 15 15 15 15 15 14 14 14 14 13 13 13 12 12 12 12 12 12 12 12 12 12 13 13 13 13 13
20 20 21 21 21 20 20 19 19 18 18 18 18 18 17 17 17 17 17 16 16 16 16 16 15 15 15 14 14 14 13 13 14 14 14 14 14 14 14 14 15 15 14
22 22 22 22 22 22 22 21 21 20 20 20 20 20 19 19 19 18 18 18 18 18 18 17 17 16 16 16 16 15 15 15 16 16 16 16 16 16 16 16 16 16 16
23 23 24 24 24 24 23 23 23 22 22 22 21 21 21 20 20 20 20 20 19 19 19 18 18 18 17 17 17 17 17 17 17 18 18 18 18 18 18 18 18 17 17
25 25 25 26 26 25 25 25 24 24 23 23 23 22 22 22 22 21 22 21 21 21 21 20 20 20 20 19 19 19 19 19 19 20 20 20 20 20 20 20 20 20 20
26 26 27 27 27 27 26 26 25 25 24 24 24 24 24 24 24 23 23 23 23 23 23 22 22 22 21 21 21 21 21 21 21 21 21 21 21 22 22 22 22 22 22
28 27 28 28 28 27 27 27 26 25 25 25 25 25 25 25 25 25 24 25 25 25 25 24 24 23 23 23 23 23 23 23 23 23 23 23 23 23 23 24 24 24 24
29 29 28 28 29 29 28 28 28 27 27 26 26 26 27 27 26 26 26 26 27 27 27 26 26 26 25 25 25 25 25 25 25 25 24 24 25 24 25 25 25 25 25
30 30 29 29 29 29 29 29 29 28 28 28 28 28 28 29 28 28 28 28 28 28 29 28 28 28 28 27 27 27 27 27 26 26 26 26 26 26 26 26 26 26 27
31 32 31 31 30 30 30 30 30 30 30 29 29 29 30 30 30 30 30 30 30 30 30 30 30 29 30 30 30 29 29 29 29 28 28 28 27 27 28 28 28 28 28
32 33 33 33 32 32 32 32 32 32 32 32 31 31 31 31 31 31 31 32 32 32 32 32 32 32 32 32 32 32 31 31 31 30 30 30 30 29 29 29 29 30 30
33 34 34 34 34 34 34 33 34 34 33 33 33 32 32 32 32 32 32 32 32 33 33 33 34 34 34 34 34 34 34 33 33 33 33 33 32 32 32 32 31 31 31
33 34 35 35 35 35 35 35 35 35 35 34 33 33 33 33 33 33 33 33 33 34 34 35 35 35 35 35 35 35 36 35 35 35 35 35 34 34 33 33 33 32 32
33 34 35 35 35 35 36 36 36 36 36 35 34 34 34 34 34 34 35 35 35 35 35 35 36 36 35 36 36 36 37 37 37 37 36 36 36 35 35 35 35 34 34
34 35 35 35 35 35 35 35 36 36 36 36 35 35 35 35 35 35 35 36 36 36 36 36 36 36 36 36 36 36 37 38 38 38 38 38 38 37 37 37 36 36 36
34 35 36 36 36 36 36 36 36 36 36 36 36 36 35 35 36 37 36 36 37 37 37 37 37 37 38 38 38 38 38 38 39 39 39 39 39 39 39 39 38 38 38
35 35 37 37 37 37 36 36 37 37 36 36 37 37 37 36 36 37 38 38 38 39 39 39 39 39 39 40 40 40 40 40 40 40 40 40 40 41 41 40 40 40 39
35 36 37 38 38 37 37 37 37 37 37 37 37 38 38 38 38 38 38 38 39 40 40 40 40 41 41 41 41 41 41 41 41 41 41 41 41 41 41 41 41 41 41
34 36 37 38 38 37 37 37 37 37 37 37 38 39 39 39 39 39 39 39 40 40 41 41 41 42 42 42 42 42 42 42 42 42 42 42 42 42 42 42 42 42 42
35 35 37 37 37 37 38 37 37 38 38 38 39 39 40 40 40 40 40 40 40 40 41 42 42 43 43 43 43 43 43 43 42 42 43 43 43 43 43 43 43 43 44
34 35 36 36 37 37 38 38 38 38 39 39 38 39 40 40 40 40 41 42 42 42 42 42 43 43 44 44 44 44 44 44 44 44 44 43 44 44 45 45 46 45 45
34 34 35 36 36 37 38 38 38 38 38 39 39 39 40 40 41 41 42 42 43 43 43 43 44 44 45 45 46 46 45 45 45 44 44 45 45 46 46 47 47 47 46
32 33 34 35 36 37 38 38 38 38 38 39 39 40 39 39 40 40 42 42 43 43 44 44 44 44 45 45 46 46 46 46 46 45 45 46 46 46 47 48 48 48 48
32 33 33 34 35 36 36 37 37 38 38 39 39 40 39 39 39 39 40 41 42 42 43 44 44 45 45 45 45 45 46 46 47 46 46 46 46 47 47 47 47 47 48
32 32 32 33 34 35 36 36 37 37 38 38 38 38 39 40 39 39 39 40 41 42 43 43 44 45 46 45 45 45 45 46 47 47 47 46 46 46 46 46 46 47 48

GEFSSE_500_meanwind_324.txt.gz
Wind_Speed
16 16 16 16 16 16 15 15 15 15 15 15 15 15 15 15 15 15 15 15 15 15 14 14 14 13 13 12 12 12 12 12 12 12 12 12 12 12 12 12 12 12 12
17 17 18 18 18 17 17 17 17 16 16 16 16 15 15 15 16 16 16 16 17 17 17 16 16 15 15 14 14 14 14 14 14 13 14 14 14 14 14 13 13 14 14
18 18 19 20 19 19 18 18 17 17 17 17 16 16 16 16 16 16 16 17 17 18 18 18 17 17 17 16 16 16 15 15 15 15 15 15 16 16 15 15 15 15 15
19 19 20 21 21 21 20 19 19 19 18 18 18 17 17 18 17 17 17 17 18 18 18 18 18 18 18 17 17 17 17 17 17 17 17 17 17 17 17 17 17 17 17
21 21 21 21 22 22 22 21 20 20 20 20 19 19 19 19 19 19 19 19 19 19 19 19 19 19 19 19 19 19 18 18 18 19 19 19 19 19 19 19 19 19 19
23 22 21 22 23 23 23 23 22 22 22 22 22 22 21 21 21 21 21 21 21 20 21 21 20 20 20 20 20 20 20 20 20 20 20 20 21 21 21 21 21 21 21
24 24 23 23 24 24 25 24 24 24 24 24 23 24 23 23 23 23 22 22 23 22 22 22 22 22 22 22 22 22 22 21 22 22 22 22 22 23 23 23 23 23 23
26 25 24 24 24 25 25 25 25 26 26 26 25 25 25 25 25 24 24 24 24 24 24 24 24 24 24 24 24 24 24 24 24 24 24 24 24 25 25 25 25 25 24
28 27 26 25 25 25 26 26 27 27 27 27 27 27 27 26 26 26 26 26 26 26 25 26 26 26 26 27 27 26 26 26 26 26 26 26 26 26 26 26 26 27 27
29 28 27 27 27 27 27 28 28 28 28 28 29 28 28 28 28 28 28 28 28 28 28 28 27 28 28 29 29 28 28 27 27 27 27 28 27 27 27 27 27 28 28
31 30 29 29 29 29 29 29 30 30 30 31 31 31 30 30 30 29 30 30 30 30 30 30 30 30 30 30 30 30 29 29 29 29 29 29 29 29 28 28 28 29 29
32 32 31 31 31 30 30 31 32 31 31 32 32 32 32 32 31 31 31 31 31 31 31 31 31 31 31 31 31 31 31 31 31 31 31 31 31 31 31 30 30 30 30
33 33 33 32 32 32 32 33 33 33 33 33 33 33 34 34 34 33 33 33 32 32 32 32 32 32 32 33 33 32 32 33 33 33 33 33 33 33 33 32 32 32 32
33 33 34 34 34 34 34 34 34 34 34 34 33 33 34 35 35 35 34 34 34 33 33 33 33 33 33 33 33 33 33 33 34 34 34 35 35 35 35 34 34 34 34
33 33 34 34 35 35 35 35 35 35 35 34 35 34 34 35 35 36 35 34 34 35 35 35 35 34 34 34 34 34 34 35 35 35 36 36 37 37 37 37 37 36 36
33 34 34 34 35 35 35 35 35 36 36 35 36 35 34 34 35 35 35 35 35 35 36 36 36 36 35 35 35 36 36 36 36 37 37 37 38 38 39 39 39 38 38
34 34 33 34 34 34 34 35 35 35 36 36 36 36 35 35 35 36 36 36 36 37 37 37 37 37 37 37 37 38 38 37 37 38 37 37 38 39 40 40 40 40 39
35 34 33 33 34 34 34 34 34 36 37 36 37 37 37 36 36 37 37 37 37 37 38 38 38 39 39 39 39 39 39 38 38 38 38 38 38 38 40 40 40 40 40
35 35 34 34 34 35 34 34 34 35 36 36 36 37 37 37 37 37 38 38 38 38 38 38 38 39 39 39 40 40 40 40 40 39 39 39 39 39 40 40 41 41 41
35 35 35 35 35 35 35 35 36 36 36 36 36 37 38 39 39 38 38 39 40 39 39 39 39 40 40 41 41 41 41 41 41 41 41 41 41 41 41 41 41 41 41
35 34 35 34 35 34 34 35 36 37 37 37 37 37 37 38 39 39 39 40 40 40 40 40 40 40 40 41 41 41 42 42 42 42 43 43 43 43 43 43 43 43 43
36 35 35 35 34 34 34 34 36 36 37 37 37 37 37 38 38 38 38 39 40 40 41 40 40 40 41 41 41 41 42 43 43 44 44 45 45 44 44 44 44 44 44
36 35 35 34 34 34 34 34 35 36 37 37 37 36 37 37 38 38 38 38 39 39 39 39 40 40 41 42 42 43 43 43 44 45 45 46 46 46 46 45 45 46 46
35 35 35 34 35 35 34 34 35 36 37 37 37 37 38 37 38 38 38 38 38 39 40 40 41 41 41 42 42 43 43 44 44 44 45 45 46 46 46 47 47 47 47
33 34 34 34 35 35 35 35 36 37 37 38 37 37 37 37 38 38 39 40 40 40 40 40 41 42 42 42 43 43 44 44 45 44 44 45 45 46 47 47 48 48 49
32 33 33 34 34 35 36 36 36 36 37 37 38 37 37 38 38 39 39 40 40 41 41 41 42 42 42 43 43 44 44 45 44 45 45 44 44 44 45 46 46 47 48

GEFSSE_500_meanwind_330.txt.gz
Wind_Speed
17 17 17 16 15 14 15 14 14 14 13 13 12 12 12 11 11 10 10 10 10 10 10 10 10 10 10 10 10 10 10 11 11 11 12 12 12 13 13 13 13 12 12
18 18 18 17 16 16 16 16 15 15 15 14 14 13 13 13 13 12 12 12 12 12 12 12 12 12 12 12 12 12 12 12 12 12 13 13 13 14 14 14 14 13 13
19 19 19 19 18 18 17 17 17 17 16 16 15 14 15 14 14 14 14 14 13 14 14 14 14 14 14 14 14 14 14 13 13 13 14 14 15 15 15 15 15 15 15
21 21 20 20 19 19 18 18 18 18 18 17 16 16 16 16 16 16 16 15 15 15 16 16 16 16 16 15 15 15 15 15 15 15 16 16 16 17 17 17 17 17 17
23 22 22 22 20 20 20 20 20 19 19 18 18 18 17 17 17 18 18 17 17 17 17 17 17 17 17 17 17 17 17 16 16 17 18 18 18 18 19 19 19 19 20
24 24 23 23 23 22 21 21 21 21 21 21 20 20 19 19 19 19 19 19 19 19 19 18 19 19 19 19 19 18 19 19 19 19 19 19 20 20 21 21 21 21 21
26 26 26 25 25 25 24 23 22 23 22 22 22 22 21 21 21 20 20 20 20 20 20 20 20 21 21 21 20 20 20 20 20 21 21 21 21 22 22 23 24 23 23
28 27 27 27 27 27 26 25 25 24 24 23 23 23 23 23 23 22 22 22 22 22 22 22 22 22 22 22 22 22 23 23 23 23 23 23 23 23 23 24 24 24 24
29 29 29 28 28 28 28 28 27 26 26 25 25 25 25 25 25 24 24 24 24 24 24 24 24 24 24 24 25 25 25 25 25 25 25 25 25 25 24 25 25 25 25
30 30 30 30 29 29 29 29 28 28 28 27 27 26 26 26 26 26 26 26 26 26 26 26 26 26 26 26 26 26 26 27 27 28 27 27 27 27 27 27 27 27 27
31 31 31 31 31 31 30 30 30 30 30 30 29 28 28 28 28 28 28 28 28 28 28 28 27 27 27 28 28 28 29 29 29 29 29 29 29 29 29 29 29 29 29
32 32 32 32 32 32 32 32 32 32 32 32 32 31 30 29 29 30 30 30 29 29 29 29 29 29 29 30 30 30 30 30 30 30 30 31 31 31 31 31 31 31 31
32 33 33 33 33 33 33 33 33 33 33 33 33 33 33 32 31 31 32 32 31 31 31 31 31 31 31 31 32 31 31 31 31 31 31 32 32 32 32 32 33 33 33
33 33 33 33 32 33 33 33 33 33 33 34 34 34 34 34 33 32 32 32 33 33 32 32 32 32 32 32 32 32 32 32 32 33 33 33 34 34 34 34 34 34 35
33 33 33 33 33 33 33 33 33 33 34 34 34 34 35 35 34 33 33 33 34 34 33 33 33 33 33 33 33 34 34 34 34 34 35 35 35 36 35 35 36 36 36
34 33 33 34 34 34 33 34 34 34 35 34 34 34 34 34 35 34 34 34 34 34 33 33 33 33 34 34 34 35 35 36 36 37 36 36 37 37 37 37 37 37 37
34 34 33 34 34 34 34 34 35 35 35 35 35 35 34 34 35 35 35 35 34 34 34 34 33 33 33 34 35 36 36 37 37 37 37 37 38 38 38 38 38 38 37
35 34 34 34 35 35 35 35 34 34 34 34 35 35 35 34 34 35 36 36 35 34 35 36 36 35 35 35 35 36 37 37 37 38 38 39 39 39 39 39 39 39 39
34 35 35 35 35 35 35 35 35 35 34 34 34 35 35 35 34 34 35 36 36 36 36 36 37 37 37 37 37 37 37 37 38 38 39 39 39 40 40 40 40 40 40
35 35 35 35 35 36 36 36 36 36 35 35 35 35 35 35 36 35 35 36 36 36 37 37 37 37 38 38 38 39 38 38 38 39 40 40 40 41 41 41 42 41 41
36 36 36 36 36 36 36 37 37 36 36 36 35 35 35 35 35 36 36 36 36 37 37 37 37 37 38 39 39 39 39 39 39 40 41 41 41 41 42 42 43 42 42
36 37 37 37 37 37 37 37 37 37 36 36 36 36 36 36 36 36 37 37 38 39 39 38 38 38 39 39 40 39 39 39 40 41 41 41 41 41 42 42 43 43 43
36 37 37 37 37 37 37 36 36 36 36 37 37 36 36 36 36 37 38 37 38 38 39 39 39 39 39 40 40 40 40 40 40 40 41 41 41 41 41 41 42 43 43
36 37 37 38 39 38 38 38 37 37 37 37 38 37 36 36 35 36 37 37 38 38 38 38 39 39 39 40 40 40 41 41 41 40 41 41 42 42 41 42 42 42 43
35 36 37 37 39 39 39 39 38 38 38 38 37 37 37 37 37 37 36 37 37 38 38 39 39 40 39 40 40 41 41 42 42 41 41 41 42 43 43 43 43 43 44
35 36 36 37 37 38 38 39 39 39 39 39 38 38 38 38 38 38 37 37 37 38 39 40 41 40 40 40 40 41 42 42 42 42 42 41 41 42 42 43 43 44 44

GEFSSE_500_meanwind_336.txt.gz
Wind_Speed
17 17 17 16 16 15 15 15 15 15 15 15 15 15 14 14 13 13 12 12 11 11 10 9 9 9 9 9 9 9 9 9 9 9 9 10 10 10 10 10 10 11 11
18 18 18 18 18 17 17 16 16 16 17 16 16 16 15 15 15 15 14 13 13 12 12 12 11 11 11 10 10 11 11 11 11 11 11 11 11 11 11 12 12 12 12
19 19 19 19 19 19 19 18 18 18 18 18 18 17 17 17 16 16 16 15 15 14 14 14 13 13 12 12 12 12 12 13 13 13 13 13 13 13 13 13 13 14 14
20 20 20 20 20 20 20 20 20 19 19 20 19 19 18 18 18 18 18 17 17 16 16 15 15 15 14 14 14 14 14 14 14 14 15 14 14 14 14 14 15 15 16
22 21 21 21 21 21 21 21 21 20 20 21 21 20 19 20 20 19 19 19 18 18 17 17 17 17 16 16 16 15 15 15 15 16 16 16 16 16 16 17 17 17 17
23 23 22 23 22 22 22 22 22 22 22 22 22 21 21 20 20 20 20 20 20 19 19 18 18 18 18 18 18 17 17 17 17 17 17 17 17 18 18 18 19 19 19
25 24 24 24 24 24 24 24 24 24 23 23 23 23 22 22 22 22 21 21 21 21 21 20 20 20 19 19 19 19 19 19 19 19 18 18 19 19 20 20 21 21 21
26 26 26 25 25 25 25 25 25 25 25 25 24 24 24 24 23 23 23 23 23 23 23 23 22 22 22 21 21 21 21 21 21 21 20 20 21 21 21 21 22 23 23
28 28 27 27 26 26 27 27 27 27 26 26 25 26 26 25 25 24 24 23 24 24 24 24 24 23 23 23 23 23 23 23 23 22 23 23 23 23 23 24 24 24 24
29 29 28 28 28 28 28 28 28 28 28 27 27 27 27 27 27 26 25 24 24 24 24 24 25 25 25 25 25 25 25 25 25 25 25 25 25 25 26 26 26 26 26
31 30 29 29 29 29 29 30 30 29 30 29 29 29 29 29 29 29 27 26 25 24 25 25 25 26 26 26 26 26 26 26 26 27 27 27 27 27 27 28 28 28 28
31 30 30 30 30 30 30 30 31 31 31 31 31 30 31 31 31 31 30 28 27 27 26 26 26 27 27 27 27 27 27 27 27 28 28 29 29 29 29 29 30 30 30
32 32 31 31 31 31 31 32 32 32 32 31 32 32 32 32 32 33 31 30 30 29 28 28 27 28 28 28 28 28 28 28 29 29 30 30 31 31 31 31 31 31 32
34 33 33 32 32 32 32 32 33 33 33 32 32 32 32 32 33 33 33 33 32 31 30 29 29 29 29 29 29 29 30 30 31 31 32 32 32 33 33 33 32 32 33
35 35 34 34 34 34 33 33 33 33 33 33 32 32 33 33 33 34 35 34 34 33 32 31 30 31 31 30 31 31 31 32 32 33 33 33 34 34 34 34 34 34 34
36 35 35 35 35 35 34 34 34 33 33 33 33 33 33 33 34 34 35 35 35 35 35 34 33 33 33 32 32 32 32 32 33 33 34 34 34 35 35 35 35 35 35
36 36 36 36 35 35 35 34 34 33 32 32 32 33 33 34 34 34 34 34 34 35 35 34 33 33 33 33 33 33 33 33 33 34 35 35 35 36 36 36 36 37 37
37 36 35 35 35 35 35 35 35 35 34 34 33 33 34 34 34 34 34 34 34 34 34 35 34 34 33 34 34 34 34 34 35 35 36 36 36 36 36 36 37 38 37
37 36 36 35 35 35 35 36 36 36 35 34 34 34 34 35 35 34 34 34 34 34 35 36 36 35 34 34 35 35 35 35 35 36 37 37 36 36 36 37 37 38 38
37 37 36 35 35 35 35 35 35 36 35 35 35 35 34 34 35 35 35 36 35 36 36 37 36 36 36 35 36 36 36 36 36 37 37 37 37 37 37 38 38 39 39
38 38 37 36 36 36 36 36 35 36 36 36 36 36 35 35 35 35 36 36 36 36 37 37 37 37 37 36 36 37 37 37 38 38 38 38 38 38 38 39 39 40 40
38 38 38 37 36 36 37 37 36 36 36 37 37 37 37 37 36 35 36 36 36 36 37 37 37 38 37 37 37 37 38 39 39 39 39 39 39 39 39 39 39 40 40
38 37 37 37 37 37 37 37 37 37 36 37 38 38 38 38 38 38 36 36 36 37 37 37 37 38 37 37 38 39 39 39 40 40 40 40 39 39 39 39 40 40 40
39 38 37 37 37 37 38 38 38 37 37 37 38 38 38 38 39 38 38 38 37 37 37 37 37 37 37 37 38 39 40 40 41 41 40 40 40 40 40 40 40 40 40
37 38 37 37 36 36 37 38 38 38 37 37 37 38 38 39 38 38 38 38 38 38 37 38 38 38 38 38 38 39 40 40 40 41 40 41 41 41 41 40 40 40 41
37 36 36 36 36 36 36 37 38 38 38 38 38 38 38 39 39 39 38 38 39 39 39 38 39 38 39 39 39 40 40 40 40 40 40 41 41 41 41 41 41 41 42

GEFSSE_500_meanwind_342.txt.gz
Wind_Speed
16 16 16 16 16 16 16 15 15 16 16 16 16 16 15 15 15 14 14 13 13 13 12 12 11 11 10 10 10 10 10 10 10 10 9 9 10 10 10 10 10 10 11
17 18 18 18 17 17 17 17 17 17 18 17 17 17 17 17 16 16 16 15 15 14 14 14 13 12 12 12 12 11 11 11 11 11 11 11 11 11 11 11 12 12 12
18 19 19 19 18 19 19 18 18 19 19 19 19 19 19 18 18 18 17 17 17 16 16 15 15 14 14 14 13 13 13 12 13 13 13 13 13 13 13 13 13 13 13
20 20 20 20 20 20 20 20 20 20 20 20 20 20 20 20 19 19 19 18 18 18 18 17 16 16 15 15 15 15 14 14 14 14 14 14 14 14 14 14 15 15 15
21 21 21 21 20 21 21 21 21 21 21 21 21 21 22 21 21 21 20 20 19 19 19 19 18 18 17 17 17 17 16 16 15 15 15 15 15 15 16 16 16 16 16
23 22 22 22 21 22 22 22 22 22 22 22 22 22 22 22 22 22 22 21 20 20 20 20 20 19 19 19 18 18 18 18 18 17 17 17 16 16 16 17 17 17 18
24 24 24 24 23 23 23 23 23 23 23 23 23 22 22 23 23 23 23 23 22 21 21 21 21 20 20 20 20 20 20 19 19 19 19 18 18 18 18 18 19 19 19
26 25 26 25 25 25 25 25 25 25 25 25 24 24 24 23 24 24 23 24 24 23 23 23 22 22 22 21 21 21 21 21 21 20 20 20 20 20 20 20 20 20 21
27 27 27 27 27 26 26 26 26 26 26 26 26 25 25 25 25 24 25 24 24 24 24 23 23 24 24 23 23 22 22 22 22 21 21 21 22 22 22 22 22 22 23
29 28 28 28 28 28 27 27 27 27 27 27 27 27 26 26 26 26 26 26 26 26 25 25 24 25 25 25 24 24 23 23 23 23 23 23 23 23 23 24 24 24 24
31 31 30 30 30 29 29 29 29 29 29 28 29 28 28 27 27 27 27 27 27 27 27 27 26 26 26 26 26 25 25 24 25 24 24 24 24 24 24 25 25 25 25
33 32 32 31 31 31 30 30 30 30 30 30 29 29 29 29 29 28 28 29 28 28 27 28 27 27 27 27 26 26 26 26 26 26 25 25 25 25 26 26 26 26 27
34 33 33 32 32 31 31 31 31 31 31 31 30 30 30 29 29 30 29 30 29 29 28 28 28 28 27 28 28 27 27 26 27 27 26 27 27 27 28 28 28 29 29
35 34 33 33 33 33 32 32 32 32 32 32 31 31 31 30 30 30 31 31 31 31 30 29 29 30 29 29 29 28 28 27 27 27 27 28 28 29 30 30 31 31 32
36 35 35 35 34 34 33 33 33 33 33 33 33 32 32 31 30 30 31 31 31 31 31 31 30 31 31 30 29 29 28 28 28 28 29 29 29 30 31 31 32 33 33
37 36 36 36 35 35 34 33 34 34 33 33 33 33 32 32 31 30 31 31 31 31 32 31 31 30 31 31 31 30 30 30 30 30 30 31 31 31 32 33 33 34 35
38 37 37 37 36 35 35 34 34 34 35 34 34 33 33 33 33 32 32 32 32 33 33 32 32 31 31 31 31 31 30 31 30 31 31 32 33 33 34 34 35 36 36
38 38 37 37 37 36 36 36 35 35 35 35 34 34 34 34 34 34 33 32 33 34 33 32 32 31 31 31 32 31 32 32 32 32 33 33 34 34 35 36 37 37 37
39 38 38 38 38 37 37 37 37 36 36 35 35 34 34 34 35 35 35 34 34 34 34 33 33 32 32 32 33 33 33 33 33 34 34 35 35 35 36 36 37 38 37
41 40 39 39 39 39 38 37 37 37 37 37 36 36 36 35 35 36 35 36 35 34 35 34 34 34 34 34 35 35 35 34 35 35 36 36 37 37 37 38 38 38 37
42 41 40 40 40 39 39 38 38 37 37 37 37 37 37 37 36 36 36 36 35 35 36 36 35 35 36 37 36 36 36 36 36 36 37 37 38 38 39 39 39 39 38
41 41 41 40 39 39 39 38 38 37 37 37 38 38 38 38 37 37 37 36 36 35 36 37 37 37 37 37 37 36 37 37 36 37 37 38 39 40 40 40 40 40 39
41 42 41 41 40 40 39 39 38 38 38 38 38 38 38 38 38 38 38 38 38 38 37 37 37 37 37 37 37 37 38 38 37 37 38 39 40 41 41 41 41 40 40
41 41 41 41 41 41 39 38 38 38 38 38 38 38 38 38 38 38 38 38 37 38 39 38 38 37 37 38 38 38 39 39 39 38 38 39 40 41 41 41 41 41 40
40 40 40 41 40 40 40 38 38 39 38 38 38 38 38 38 38 38 38 38 38 38 38 38 38 38 38 38 38 38 39 39 39 39 39 39 40 41 42 41 41 40 40
38 39 40 40 40 38 38 39 39 38 38 38 38 38 38 38 39 39 38 38 39 39 38 39 40 39 38 38 38 38 39 39 40 40 40 39 40 41 42 41 40 40 40